When you browse on this site, cookies collect data to enhance your experience and personalize the content and advertising you see.
Visit our Privacy Policy to learn more. By continuing to use the site, you agree to this use of cookies and data.
  • In Spain
  • List of Countries
  • For 7 days
  • Water Temperature
  • Weather Map
  • Weather Widgets
  • user-avatar
    Login

    Hourly Weather La Massana

    Today, 4 June, Thursday

    Time Temperature Precipitation Wind Pressure Humidity
    00:00 +8°C° 0 mm 0 mps 604 mmHg 99%
    01:00 +8°C° 1.1 mm 1 mps 603 mmHg 99%
    02:00 +8°C° 1.1 mm 1 mps 603 mmHg 98%
    03:00 +8°C° 1.1 mm 1 mps 602 mmHg 98%
    04:00 +7°C° 2.4 mm 1 mps 602 mmHg 98%
    05:00 +7°C° 2.4 mm 1 mps 602 mmHg 97%
    06:00 +7°C° 2.4 mm 1 mps 602 mmHg 97%
    07:00 +7°C° 0.7 mm 1 mps 602 mmHg 96%
    08:00 +7°C° 0.7 mm 1 mps 601 mmHg 94%
    09:00 +6°C° 0.7 mm 1 mps 601 mmHg 93%
    10:00 +7°C° 0.4 mm 1 mps 602 mmHg 90%
    11:00 +7°C° 0.4 mm 1 mps 602 mmHg 86%
    12:00 +8°C° 0.4 mm 1 mps 602 mmHg 83%
    13:00 +7°C° 0.7 mm 2 mps 602 mmHg 85%
    14:00 +6°C° 0.7 mm 2 mps 601 mmHg 87%
    15:00 +6°C° 0.7 mm 2 mps 601 mmHg 89%
    16:00 +6°C° 0.4 mm 2 mps 601 mmHg 88%
    17:00 +6°C° 0.4 mm 2 mps 601 mmHg 86%
    18:00 +6°C° 0.4 mm 2 mps 601 mmHg 85%
    19:00 +5°C° 0.1 mm 2 mps 602 mmHg 88%
    20:00 +5°C° 0.1 mm 2 mps 602 mmHg 90%
    21:00 +4°C° 0.1 mm 2 mps 602 mmHg 93%
    22:00 +3°C° 0 mm 2 mps 602 mmHg 93%
    23:00 +3°C° 0 mm 2 mps 602 mmHg 93%

    Tomorrow, 5 June, Friday

    Time Temperature Precipitation Wind Pressure Humidity
    00:00 +3°C° 0 mm 2 mps 602 mmHg 93%
    01:00 +3°C° 0.1 mm 2 mps 602 mmHg 93%
    02:00 +2°C° 0.1 mm 2 mps 603 mmHg 93%
    03:00 +2°C° 0.1 mm 2 mps 603 mmHg 93%
    04:00 +3°C° 0 mm 2 mps 603 mmHg 91%
    05:00 +3°C° 0 mm 2 mps 603 mmHg 89%
    06:00 +3°C° 0 mm 2 mps 604 mmHg 87%
    07:00 +5°C° 0 mm 2 mps 605 mmHg 80%
    08:00 +6°C° 0 mm 2 mps 606 mmHg 72%
    09:00 +8°C° 0 mm 2 mps 607 mmHg 65%
    10:00 +10°C° 0 mm 2 mps 607 mmHg 60%
    11:00 +12°C° 0 mm 2 mps 608 mmHg 56%
    12:00 +14°C° 0 mm 2 mps 609 mmHg 51%
    13:00 +14°C° 0 mm 2 mps 609 mmHg 53%
    14:00 +14°C° 0 mm 2 mps 609 mmHg 54%
    15:00 +14°C° 0 mm 2 mps 609 mmHg 56%
    16:00 +13°C° 0 mm 2 mps 608 mmHg 64%
    17:00 +12°C° 0 mm 2 mps 608 mmHg 73%
    18:00 +11°C° 0 mm 1 mps 607 mmHg 81%
    19:00 +10°C° 0 mm 1 mps 607 mmHg 85%
    20:00 +9°C° 0 mm 1 mps 608 mmHg 89%
    21:00 +7°C° 0 mm 0 mps 608 mmHg 93%
    22:00 +6°C° 0 mm 0 mps 607 mmHg 94%
    23:00 +6°C° 0 mm 0 mps 607 mmHg 94%

    Day after tomorrow, 6 June, Saturday

    Time Temperature Precipitation Wind Pressure Humidity
    00:00 +5°C° 0 mm 0 mps 607 mmHg 95%
    01:00 +6°C° 0 mm 0 mps 607 mmHg 95%
    02:00 +6°C° 0 mm 0 mps 607 mmHg 95%
    03:00 +6°C° 0 mm 0 mps 607 mmHg 94%
    04:00 +6°C° 0 mm 0 mps 607 mmHg 92%
    05:00 +7°C° 0 mm 0 mps 607 mmHg 90%
    06:00 +8°C° 0 mm 0 mps 607 mmHg 88%
    07:00 +10°C° 0 mm 1 mps 608 mmHg 80%
    08:00 +12°C° 0 mm 1 mps 609 mmHg 72%
    09:00 +14°C° 0 mm 2 mps 610 mmHg 63%
    10:00 +14°C° 0.2 mm 2 mps 610 mmHg 65%
    11:00 +14°C° 0.2 mm 2 mps 610 mmHg 67%
    12:00 +14°C° 0.2 mm 2 mps 609 mmHg 69%
    13:00 +13°C° 0.6 mm 2 mps 609 mmHg 74%
    14:00 +13°C° 0.6 mm 2 mps 608 mmHg 80%
    15:00 +12°C° 0.6 mm 2 mps 608 mmHg 86%
    16:00 +12°C° 1.2 mm 1 mps 607 mmHg 88%
    17:00 +11°C° 1.2 mm 1 mps 607 mmHg 90%
    18:00 +10°C° 1.2 mm 0 mps 607 mmHg 91%
    19:00 +10°C° 2.8 mm 1 mps 607 mmHg 93%
    20:00 +9°C° 2.8 mm 1 mps 607 mmHg 95%
    21:00 +7°C° 2.8 mm 2 mps 607 mmHg 98%
    22:00 +8°C° 1.6 mm 1 mps 607 mmHg 97%
    23:00 +8°C° 1.6 mm 1 mps 606 mmHg 96%

    7 June, Sunday

    Time Temperature Precipitation Wind Pressure Humidity
    00:00 +7°C° 1.6 mm 1 mps 606 mmHg 96%
    01:00 +7°C° 0.4 mm 1 mps 606 mmHg 96%
    02:00 +8°C° 0.4 mm 1 mps 606 mmHg 95%
    03:00 +7°C° 0.4 mm 0 mps 606 mmHg 95%
    04:00 +7°C° 0.6 mm 1 mps 606 mmHg 95%
    05:00 +7°C° 0.6 mm 1 mps 606 mmHg 96%
    06:00 +7°C° 0.6 mm 1 mps 606 mmHg 96%
    07:00 +7°C° 0.8 mm 1 mps 607 mmHg 95%
    08:00 +8°C° 0.8 mm 1 mps 607 mmHg 95%
    09:00 +8°C° 0.8 mm 1 mps 608 mmHg 94%
    10:00 +8°C° 0.5 mm 1 mps 608 mmHg 93%
    11:00 +8°C° 0.5 mm 1 mps 608 mmHg 92%
    12:00 +8°C° 0.5 mm 1 mps 608 mmHg 91%
    13:00 +8°C° 0.6 mm 1 mps 608 mmHg 91%
    14:00 +7°C° 0.6 mm 2 mps 607 mmHg 90%
    15:00 +7°C° 0.6 mm 2 mps 607 mmHg 90%
    16:00 +6°C° 0.4 mm 2 mps 607 mmHg 90%
    17:00 +6°C° 0.4 mm 2 mps 607 mmHg 90%
    18:00 +6°C° 0.4 mm 2 mps 607 mmHg 90%
    19:00 +5°C° 0.2 mm 2 mps 607 mmHg 91%
    20:00 +5°C° 0.2 mm 1 mps 607 mmHg 92%
    21:00 +5°C° 0.2 mm 1 mps 607 mmHg 92%
    22:00 +5°C° 0 mm 1 mps 607 mmHg 92%
    23:00 +4°C° 0 mm 1 mps 607 mmHg 91%

    8 June, Monday

    Time Temperature Precipitation Wind Pressure Humidity
    00:00 +4°C° 0 mm 1 mps 607 mmHg 91%
    01:00 +4°C° 0 mm 1 mps 607 mmHg 92%
    02:00 +4°C° 0 mm 1 mps 607 mmHg 92%
    03:00 +4°C° 0 mm 1 mps 607 mmHg 93%
    04:00 +4°C° 0 mm 1 mps 607 mmHg 92%
    05:00 +3°C° 0 mm 2 mps 607 mmHg 90%
    06:00 +3°C° 0 mm 2 mps 607 mmHg 89%
    07:00 +5°C° 0 mm 2 mps 608 mmHg 77%
    08:00 +6°C° 0 mm 2 mps 609 mmHg 66%
    09:00 +8°C° 0 mm 2 mps 610 mmHg 54%
    10:00 +9°C° 0 mm 2 mps 610 mmHg 52%
    11:00 +10°C° 0 mm 2 mps 611 mmHg 50%
    12:00 +12°C° 0 mm 2 mps 611 mmHg 47%
    13:00 +12°C° 0.1 mm 2 mps 611 mmHg 54%
    14:00 +10°C° 0.1 mm 2 mps 610 mmHg 61%
    15:00 +9°C° 0.1 mm 2 mps 610 mmHg 67%
    16:00 +8°C° 0.2 mm 2 mps 609 mmHg 73%
    17:00 +7°C° 0.2 mm 2 mps 609 mmHg 79%
    18:00 +7°C° 0.2 mm 1 mps 609 mmHg 86%
    19:00 +7°C° 0.1 mm 1 mps 609 mmHg 88%
    20:00 +6°C° 0.1 mm 1 mps 609 mmHg 90%
    21:00 +6°C° 0.1 mm 1 mps 609 mmHg 92%
    22:00 +5°C° 0.1 mm 1 mps 610 mmHg 92%
    23:00 +5°C° 0.1 mm 1 mps 610 mmHg 92%

    9 June, Tuesday

    Time Temperature Precipitation Wind Pressure Humidity
    00:00 +5°C° 0.1 mm 1 mps 610 mmHg 93%
    01:00 +5°C° 0 mm 1 mps 609 mmHg 93%
    02:00 +4°C° 0 mm 1 mps 609 mmHg 94%
    03:00 +4°C° 0 mm 1 mps 608 mmHg 95%
    04:00 +4°C° 0 mm 1 mps 609 mmHg 92%
    05:00 +5°C° 0 mm 1 mps 609 mmHg 90%
    06:00 +5°C° 0 mm 1 mps 610 mmHg 88%
    07:00 +7°C° 0 mm 1 mps 611 mmHg 79%
    08:00 +9°C° 0 mm 1 mps 611 mmHg 69%
    09:00 +11°C° 0 mm 1 mps 612 mmHg 60%
    10:00 +11°C° 0 mm 1 mps 613 mmHg 58%
    11:00 +12°C° 0 mm 1 mps 613 mmHg 56%
    12:00 +13°C° 0 mm 2 mps 613 mmHg 54%
    13:00 +12°C° 0.1 mm 2 mps 613 mmHg 59%
    14:00 +12°C° 0.1 mm 2 mps 612 mmHg 64%
    15:00 +10°C° 0.1 mm 2 mps 612 mmHg 70%
    16:00 +9°C° 0.3 mm 2 mps 611 mmHg 74%
    17:00 +10°C° 0.3 mm 1 mps 611 mmHg 79%
    18:00 +9°C° 0.3 mm 1 mps 611 mmHg 84%
    19:00 +8°C° 0.1 mm 1 mps 611 mmHg 87%
    20:00 +7°C° 0.1 mm 1 mps 611 mmHg 90%
    21:00 +7°C° 0.1 mm 1 mps 611 mmHg 93%
    22:00 +6°C° 0 mm 1 mps 611 mmHg 92%
    23:00 +6°C° 0 mm 1 mps 611 mmHg 92%
    Show more